Weather Roundup
Issued by NWS Corpus Christi, TX

Home | Current Version | Previous Version | Text Only | Print | Product List | Glossary On
Versions: 1 2 3 4 5 6 7 8 9 10 11 12 13 14 15 16 17 18 19 20 21 22 23 24 25 26 27 28 29 30 31 32 33 34 35 36 37 38 39 40 41 42 43 44 45 46 47 48 49 50
000
ASUS44 KCRP 250310
HRRCRP

SOUTH TEXAS REGIONAL WEATHER ROUNDUP
NATIONAL WEATHER SERVICE CORPUS CHRISTI TX
1000 PM CDT TUE MAY 24 2016


TXZ229>244-250400-
...CORPUS CHRISTI AREA OBSERVATIONS...

CITY           SKY/WX    TMP DP  RH WIND       PRES   REMARKS
CORPUS CHRISTI PTCLDY    81  77  88 SE12      29.94R
NAS CORPUS CHR MOCLDY    82  80  94 SE16      29.93R HX  94
ROCKPORT       CLOUDY    81  77  88 SE14      29.94R
KINGSVILLE NAS CLOUDY    80  80 100 SE10      29.93R
ALICE          CLOUDY    79  76  90 SE12G20   29.92R
FALFURRIAS     CLEAR     81  75  82 SE7       29.92R
$$

...VICTORIA AREA OBSERVATIONS...

CITY           SKY/WX    TMP DP  RH WIND       PRES   REMARKS
VICTORIA       CLOUDY    79  75  87 SE8       29.96R
BEEVILLE       FAIR      78  78  99 E7        29.94R
PLEASANTON     CLOUDY    80  73  79 E10       29.94R
SAN ANTONIO    CLOUDY    80  72  76 SE15G25   29.96R
$$

...LAREDO AREA OBSERVATIONS...

CITY           SKY/WX    TMP DP  RH WIND       PRES   REMARKS
LAREDO         CLOUDY    86  76  71 E12       29.89R HX  96
COTULLA        PTCLDY    83  76  79 SE12      29.90R HX  91
DEL RIO        PTCLDY    81  75  82 E7        29.91R
MCALLEN        CLEAR     83  75  77 SE10      29.92R HX  90
HEBBRONVILLE   PTCLDY    82  76  82 SE9       29.93R
$$

...OTHER TEXAS OBSERVATIONS...

CITY           SKY/WX    TMP DP  RH WIND       PRES   REMARKS
BROWNSVILLE    CLEAR     81  78  91 SE9       29.92S
HOUSTON        MOCLDY    77  74  90 SE10      30.00R
COL. STATION   CLOUDY    80  73  79 SE15      29.97R
AUSTIN         MOCLDY    79  73  82 S8        29.95R
WACO           CLOUDY    81  73  76 S15       29.92R
FORT WORTH     CLOUDY    83  72  69 S14       29.91R
WICHITA FALLS  PTCLDY    77  71  82 S14       29.86R
LUBBOCK        CLOUDY    73  33  23 SE12      29.89R
EL PASO        MOCLDY    84   8   5 W17G23    29.95R
$$

...MARINE OBSERVATIONS...

STATION/POSITION TIME  SKY/WX   TEMP    WIND        PRES    VSBY  WAVE   SWELL
                                AIR SEA DIR/SP/G                  HT/PER HT/PER
                 (UTC)          (F)     (DEG/KT/KT) (MB)    (MI)  (FT/S) (FT/S)
PORT ARANSAS     0300            80 81  120/ 16/ 17 1014.4R
BUOY 90 E PORT A 0250            81 81  120/ 16/ 17 1014.6R         5/ 6
BUOY 45 SE BAFFI 0250            81 81  140/ 16/ 19 1013.1R         4/ 6   2/14
BUOY 200 E PT IS 0250                                 N/A           4/ 5
BUOY 15 E GALVES 0250            80 80  120/ 14/ 16 1015.7S         4/ 6
$$




USA.gov is the U.S. government's official web portal to all federal, state and local government web resources and services.